Cloud_Cover
3 5 5 7 34 79 43 6 81 21 5 5 5 3 0 0 0 31 8 3 17 98 19 93 49 100 100 100 100 100 96 90 46 54 46 3 48 6 5 5 56 6 51 100 100 93 93 11 28
0 4 5 14 14 5 11 18 54 56 92 5 0 0 0 0 3 89 8 6 11 96 23 100 100 100 100 100 100 100 42 23 5 22 5 19 93 6 5 4 5 94 90 85 85 96 20 50 57
5 5 8 14 7 5 11 5 20 26 2 3 2 0 0 0 60 60 3 8 4 52 72 69 100 100 100 100 100 48 84 86 100 45 4 87 100 0 6 2 49 6 95 92 95 26 99 100 100
0 5 9 6 5 19 11 4 0 5 4 0 0 2 4 5 1 0 3 3 0 18 29 100 100 100 100 100 84 86 9 83 97 11 12 100 95 3 81 56 96 5 68 71 96 100 100 100 99
35 88 76 83 5 4 5 5 26 5 4 4 5 23 58 11 0 0 0 0 4 22 38 100 100 100 100 100 84 30 100 50 10 5 35 100 38 100 100 37 33 47 45 12 85 100 100 100 100
7 21 5 5 5 54 38 5 5 64 5 7 24 8 19 0 0 0 0 0 7 17 94 100 100 100 86 62 7 98 100 37 5 6 78 100 100 100 29 95 6 65 24 56 100 100 100 100 92
4 0 1 5 8 2 9 5 5 69 100 20 5 2 0 0 0 0 0 0 2 5 84 100 88 72 40 7 5 66 100 50 8 4 98 100 9 100 80 36 10 89 92 57 95 97 43 73 89
0 0 0 0 0 0 2 2 5 4 0 0 0 0 0 0 0 0 0 6 18 23 38 35 61 99 98 12 5 43 100 54 5 28 100 82 4 24 100 46 12 10 5 17 77 100 100 91 20
0 0 0 0 0 0 2 0 5 0 3 1 0 0 0 0 0 0 24 54 55 77 38 41 38 74 69 61 83 91 87 5 5 45 100 100 6 12 97 34 5 7 7 16 28 100 100 100 65
0 0 0 0 0 0 0 0 0 0 0 4 4 0 0 0 0 20 34 73 50 60 76 33 21 87 28 84 100 79 97 77 0 66 21 100 72 4 69 42 5 5 5 5 78 100 68 99 100
0 0 2 0 0 0 0 0 0 0 0 0 3 10 4 0 16 8 21 1 100 89 75 65 31 90 27 89 42 49 44 70 11 2 95 100 100 67 64 100 20 6 5 77 98 100 21 98 100
0 0 0 0 2 0 3 0 0 0 0 0 1 0 6 2 15 1 6 15 22 70 48 82 100 100 68 100 100 94 77 71 46 49 99 100 100 6 62 99 57 19 5 98 97 29 28 100 87
0 0 0 2 0 0 0 0 0 0 1 0 0 53 90 7 8 4 0 1 1 6 18 37 100 93 65 100 97 100 68 44 63 87 68 100 100 5 5 5 66 18 5 78 98 20 48 100 59
0 0 0 0 0 0 0 0 0 0 3 5 4 99 99 98 100 36 0 0 0 14 88 76 100 25 55 100 99 100 98 94 80 99 97 98 100 28 5 3 5 8 5 77 80 12 5 6 35
0 0 0 0 0 0 0 0 0 5 2 5 96 96 100 100 100 92 2 0 0 1 74 52 90 100 91 100 99 83 93 92 100 100 78 100 100 96 5 5 0 6 7 5 63 12 22 49 14
0 0 0 0 0 0 0 0 0 1 5 5 92 79 96 98 87 95 2 1 0 0 72 8 100 100 99 99 100 60 21 72 43 84 99 98 99 100 91 27 5 3 6 58 22 7 5 28 7
0 0 0 0 0 2 4 0 2 0 3 81 12 18 95 64 83 100 16 5 2 0 0 67 90 100 100 99 32 41 85 38 81 89 65 17 43 92 100 90 4 3 5 5 42 12 93 6 11
0 0 0 0 0 0 31 2 0 0 0 38 78 65 20 61 33 77 100 5 5 4 5 14 34 100 100 100 99 34 79 79 84 98 5 48 25 100 100 88 28 5 5 5 5 10 5 10 43
0 0 0 0 0 0 0 0 0 0 0 2 100 100 60 60 66 100 100 88 100 67 5 5 93 100 72 100 100 87 83 96 54 84 25 5 24 78 100 94 52 100 31 4 2 36 16 5 18
0 0 0 0 0 0 0 0 0 0 0 0 5 89 82 78 80 84 84 74 84 94 53 5 56 100 97 100 91 88 65 90 92 50 88 51 30 5 98 100 100 100 85 5 5 50 66 11 68
0 0 0 0 0 0 0 0 0 0 0 0 0 4 51 74 16 73 56 100 14 82 100 7 6 100 83 100 91 98 98 100 96 41 92 75 20 41 10 90 99 100 100 34 5 59 95 66 7
0 0 0 0 0 0 0 0 0 0 0 0 0 0 1 100 22 42 99 92 68 65 99 20 4 4 76 100 99 48 91 93 100 94 89 100 98 88 64 38 100 99 65 100 83 34 49 16 6
0 0 0 0 0 0 0 0 0 0 0 0 0 0 0 0 92 41 99 59 99 64 14 100 6 0 3 94 100 100 97 100 99 100 100 100 86 100 84 96 97 69 54 98 41 11 5 6 5
0 0 0 0 2 2 5 5 5 5 0 0 0 0 0 0 3 5 19 99 56 100 66 95 94 5 2 84 100 100 100 100 100 100 100 100 100 80 64 27 6 48 91 57 41 17 5 5 14
0 0 0 1 5 24 6 5 54 5 5 3 4 5 3 1 0 1 5 5 52 96 5 28 82 38 5 82 100 100 100 100 100 100 100 100 98 100 100 5 25 5 5 5 5 73 97 100 80
0 0 5 5 5 24 79 5 42 5 6 90 14 2 5 5 5 0 0 4 5 9 5 5 50 99 8 5 51 100 100 100 100 100 100 100 68 27 44 17 58 12 5 13 52 28 65 5 30
0 0 1 0 5 44 96 5 5 20 5 57 80 5 1 5 14 8 0 0 0 67 5 11 100 100 64 6 5 86 100 100 100 100 100 100 100 100 98 87 6 8 34 51 5 57 100 99 13
0 0 0 0 2 5 87 93 60 68 81 96 100 98 1 0 20 96 35 1 0 0 20 14 89 100 100 100 98 23 99 100 100 100 99 37 37 58 45 24 38 86 96 35 10 98 100 100 5
0 0 0 0 0 0 2 94 100 97 93 68 33 32 14 0 0 2 5 5 5 0 0 0 5 38 100 100 100 100 36 78 59 93 100 100 100 100 100 100 32 5 5 5 12 93 100 89 5
0 0 0 0 0 0 0 4 12 24 66 91 40 19 73 4 0 0 0 5 5 5 4 0 0 5 37 48 96 100 100 84 60 99 18 7 11 51 5 5 5 4 5 5 5 67 90 99 78